Location: ?????????
(38.0736°N, 23.2119°E)
Time: 13:23:27
(UTC+00:00)

Iridium 4 Rocket - Pass Details

Date: 18 April 2024
Orbit: 582 x 896 km, 86.9° (Epoch: 17 May)

Event Time Altitude Azimuth Distance (km) Brightness Sun altitude
Exits shadow 19:04:20 43° 155° (SSE) 1,162 4.0 -21.8°
Maximum altitude 19:06:06 68° 88° (E) 912 3.6 -22.1°
Drops below altitude 10° 19:11:50 10° 7° (N) 2,544 6.5 -23.0°
Sets 19:14:21 0° 5° (N) 3,505 7.4 -23.4°
